Flag for U.S.A. Weather past 2 weeks in Sioux Falls, South Dakota, U.S.A.

Now
27 °F

Overcast.


Feels Like: 18 °F
Forecast: 24 / 31 °F
Wind: 9 mph from South

Location: Foss Field

Current Time: Dec 18, 2014 at 8:37:46 PM

Latest Report: Dec 18, 2014 at 7:56 PM


Visibility: 9 mi

Pressure: 30.24 "Hg

Humidity: 85%

Dew point: 23 °F

Location of Sioux FallsLocation

Historic Weather in Sioux Falls — Graph

°F

Sioux Falls temperature yesterday

Maximum temperature yesterday: 19 °F (at 2:56 PM)
Minimum temperature yesterday: -1 °F (at 7:56 AM)
Average temperature yesterday: 10 °F

Past Weeks' High & Low Weather Summary

 TemperatureHumidityPressure
High55 °F (Dec 14, 11:56 AM)97% (Dec 7, 12:56 PM)30.66 "Hg (Dec 7, 12:56 PM)
Low-1 °F (Dec 17, 7:56 AM)41% (Dec 4, 12:56 PM)29.72 "Hg (Dec 15, 8:56 AM)
Average30 °F83%30.19 "Hg
* Reported Dec 3 6:56 PM — Dec 18 6:56 PM, Sioux Falls, Weather by CustomWeather, © 2014

Note: Actual official high and low records may vary slightly from our data, if they occured in-between our weather recording intervals... More about our weather records

Advertising

Sioux Falls weather history for previous 24 hours

 ConditionsComfort  
Time TempWeatherWind HumidityBarometerVisibility
6:56 PM
Dec 18
27 °FOvercast.7 mph85%30.25 "Hg9 mi
5:56 PM27 °FOvercast.7 mph81%30.24 "Hg10 mi
4:56 PM27 °FOvercast.3 mph81%30.25 "Hg7 mi
4:02 PM26 °FOvercast.7 mph84%30.17 "Hg8 mi
2:56 PM26 °FLight snow. Ice fog.7 mph84%30.24 "Hg4 mi
1:56 PM25 °FOvercast.7 mph85%30.24 "Hg7 mi
12:56 PM24 °FMostly cloudy.7 mph88%30.26 "Hg10 mi
11:56 AM24 °FMostly cloudy.7 mph81%30.28 "Hg10 mi
10:56 AM23 °FLow clouds.8 mph81%30.30 "Hg10 mi
9:56 AM21 °FMore clouds than sun.7 mph88%30.31 "Hg10 mi
8:56 AM20 °FLow clouds.7 mph89%30.31 "Hg10 mi
7:56 AM20 °FOvercast.6 mph85%30.31 "Hg10 mi
6:56 AM19 °FOvercast.6 mph85%30.30 "Hg10 mi
5:56 AM19 °FOvercast.6 mph85%30.29 "Hg10 mi
4:56 AM18 °FOvercast.7 mph84%30.29 "Hg10 mi
3:56 AM18 °FOvercast.5 mph84%30.30 "Hg10 mi
2:56 AM16 °FOvercast.5 mph84%30.31 "Hg10 mi
1:56 AM15 °FOvercast.5 mph87%30.32 "Hg10 mi
12:56 AM15 °FOvercast.3 mph83%30.34 "Hg10 mi
11:56 PM
Dec 17
13 °FOvercast.No wind88%30.35 "Hg10 mi
10:56 PM9 °FPassing clouds.No wind84%30.36 "Hg10 mi
9:56 PM8 °FClear.3 mph91%30.35 "Hg10 mi
8:56 PM9 °FClear.No wind91%30.35 "Hg10 mi
Weather by CustomWeather, © 2014

See weather overviewHow to use our weather pages